Simultaneous Nadir Overpasses (SNOs) Predictions

Prediction of SNOs between NOAA-19 and TERRA Satellite Orbit:

Table of predicted SNOs for the next 14.0 days since TLE Epoch: 3/3/2018
Index Date (NOAA-19) Time (NOAA-19) Lat,Lon (NOAA-19) SZA (NOAA-19 ) Date (TERRA) Time (TERRA) Lat,Lon (TERRA) SZA (TERRA ) Distance(km) Time Diff (sec)
1 03/03/2018 10:00:12 -76.69,-135.29 96.35 03/03/2018 10:00:48 -76.66,-135.29 96.37 3.27 36
2 03/03/2018 10:51:12 76.65, 32.13 83.61 03/03/2018 10:50:14 76.64, 32.27 83.60 3.73 58
3 03/05/2018 15:33:52 76.70, -38.68 82.82 03/05/2018 15:34:31 76.68, -38.64 82.81 1.98 39
4 03/05/2018 16:24:50 -76.63, 128.88 97.26 03/05/2018 16:24:00 -76.62, 128.76 97.29 3.35 50
5 03/07/2018 21:07:30 -76.70, 57.97 98.04 03/07/2018 21:08:16 -76.70, 57.99 98.03 0.67 46
6 03/07/2018 21:58:31 76.66,-134.60 81.91 03/07/2018 21:57:43 76.63,-134.61 81.88 3.02 48
7 03/10/2018 02:41:11 76.72, 154.56 81.11 03/10/2018 02:41:59 76.71, 154.59 81.12 1.05 48
8 03/10/2018 03:32:08 -76.65, -37.89 98.96 03/10/2018 03:31:28 -76.65, -38.00 98.98 3.02 40
9 03/12/2018 08:14:48 -76.73,-108.83 99.74 03/12/2018 08:15:44 -76.72,-108.82 99.75 1.73 56
10 03/12/2018 09:05:50 76.68, 58.61 80.21 03/12/2018 09:05:10 76.69, 58.73 80.21 3.16 40
11 03/14/2018 13:48:30 76.75, -12.26 79.41 03/14/2018 13:49:26 76.76, -12.11 79.43 3.84 56
12 03/14/2018 14:39:26 -76.68, 155.29 100.66 03/14/2018 14:38:55 -76.69, 155.30 100.66 1.08 31
13 03/16/2018 19:22:05 -76.73, 84.50 101.48 03/16/2018 19:23:11 -76.75, 84.43 101.45 2.85 66




NCC Satellite Simultaneous Nadir Overpasses (SNOs) Prediction Service
